Charles City
Wednesday 11:55 PM
Temperature61° (81°/52°)
Dew Point57°
Relative Humidity88
%
Visibility10
mi
Pressure1013.2
mb
Wind DirectionS
190°
Wind Speed6
mph
Precipitation Today0.00"

Last 30 Observations

Time PresWx Temp DP Feels RH% Vsby Pressure Ceiling Direction Speed 1h Precip
11:35 PM 61° 57° 88
%
10
mi
1013.2
mb
S
180°
5
mph
0.00"
11:15 PM 63° 57° 83
%
10
mi
1013.6
mb
SSW
210°
6
mph
0.00"
10:55 PM 63° 57° 83
%
10
mi
1013.6
mb
S
170°
8
mph
0.00"
10:35 PM 63° 57° 83
%
10
mi
1013.6
mb
S
180°
8
mph
0.00"
10:15 PM 63° 57° 83
%
10
mi
1013.9
mb
SSE
160°
8
mph
0.00"
9:55 PM 64° 57° 77
%
10
mi
1013.9
mb
SSE
160°
6
mph
0.00"
9:35 PM 63° 57° 83
%
10
mi
1013.9
mb
SSE
160°
7
mph
0.00"
9:15 PM 63° 55° 77
%
10
mi
1014.2
mb
SSE
160°
7
mph
0.00"
8:55 PM 64° 55° 73
%
10
mi
1014.2
mb
S
180°
7
mph
0.00"
8:35 PM 64° 55° 73
%
10
mi
1014.2
mb
S
170°
7
mph
0.00"
8:15 PM 66° 55° 68
%
10
mi
1014.2
mb
S
180°
7
mph
0.00"
7:55 PM 66° 55° 68
%
10
mi
1014.2
mb
S
170°
6
mph
0.00"
7:35 PM 66° 57° 73
%
10
mi
1014.2
mb
S
180°
7
mph
0.00"
7:15 PM 68° 57° 68
%
10
mi
1014.2
mb
S
190°
5
mph
0.00"
6:55 PM 72° 57° 71°60
%
10
mi
1013.9
mb
S
180°
6
mph
0.00"
6:35 PM 75° 57° 75°54
%
10
mi
1013.6
mb
S
180°
9
mph
0.00"
6:15 PM 77° 57° 77°50
%
10
mi
1013.6
mb
S
180°
8
mph
0.00"
5:55 PM 77° 57° 77°50
%
10
mi
1013.6
mb
S
190°
7
mph
0.00"
5:35 PM 79° 55° 78°45
%
10
mi
1013.6
mb
S
190°
11
mph
0.00"
5:15 PM 79° 55° 78°45
%
10
mi
1013.6
mb
S
190°
13
mph
0.00"
4:55 PM 79° 55° 78°45
%
10
mi
1013.6
mb
S
180°
14
mph
0.00"
4:35 PM 79° 59° 79°51
%
10
mi
1013.6
mb
SSW
200°
11
mph
(G17)
0.00"
4:15 PM 79° 57° 79°48
%
10
mi
1013.9
mb
S
190°
13
mph
0.00"
3:55 PM 81° 57° 81°45
%
9
mi
1013.9
mb
SSW
200°
13
mph
0.00"
3:35 PM 81° 55° 81°42
%
10
mi
1014.2
mb
S
180°
11
mph
0.00"
3:15 PM 81° 57° 81°45
%
10
mi
1014.2
mb
S
190°
11
mph
(G18)
0.00"
2:55 PM 81° 55° 81°42
%
10
mi
1014.2
mb
S
190°
14
mph
0.00"
2:35 PM 79° 57° 79°48
%
9
mi
1014.6
mb
SSW
210°
11
mph
0.00"
2:15 PM 79° 57° 79°48
%
10
mi
1014.9
mb
S
170°
11
mph
0.00"
1:55 PM 79° 59° 79°51
%
10
mi
1015.2
mb
SW
220°
10
mph
0.00"